Location: Crescent
(42.8242°N, 73.7329°W)
Time: 16:18:23
(UTC+00:00)

ARIANE 6 FM1 Upper Stage - Visible Passes

Search period start: 06 October 2024 00:00
Search period end: 16 October 2024 00:00
Orbit: 564 x 594 km, 62.0° (Epoch: 06 October)

Date Brightness Start Highest point End Pass type
(mag) Time Alt. Az. Time Alt. Az. Time Alt. Az.
11 Oct 5.5 00:41:29 10° N 00:41:29 10° N 00:41:29 10° N visible
12 Oct 5.4 00:45:02 10° N 00:45:38 12° N 00:45:38 12° N visible
13 Oct 5.3 00:48:55 10° N 00:49:48 14° N 00:49:48 14° N visible
14 Oct 5.2 00:52:55 10° NNW 00:53:59 15° N 00:53:59 15° N visible
15 Oct 5.1 00:57:00 10° NNW 00:58:11 17° NNW 00:58:11 17° NNW visible
15 Oct 4.9 23:23:19 10° N 23:25:11 12° NNE 23:26:08 12° NE visible
